,,,PA_Meas_PMT16A,,PR_Meas_QMR101_102,,RH_Meas_QMH101,,SR_Meas_QMS101,,TA_Meas_QMH101,,GenWind,,GenWind,
date,time,status,PA,status,PR,status,RH,status,SR,status,TA,status,DirAvg,status,SpdAvg,
2012-07-30, 00:00:04,VALID,1011.31,VALID,0,VALID,104,VALID,0,VALID,23.1485,VALID,276,VALID,0,
2012-07-30, 00:01:04,VALID,1011.29,VALID,0,VALID,104,VALID,0,VALID,23.1485,VALID,276,VALID,0,
2012-07-30, 00:02:04,VALID,1011.27,VALID,0,VALID,104,VALID,0,VALID,23.129,VALID,276,VALID,0,
2012-07-30, 00:03:04,VALID,1011.27,VALID,0,VALID,104,VALID,0.112112,VALID,23.1095,VALID,276,VALID,0,
2012-07-30, 00:04:04,VALID,1011.28,VALID,0,VALID,104,VALID,0,VALID,23.09,VALID,276,VALID,0,
2012-07-30, 00:05:04,VALID,1011.25,VALID,0,VALID,104,VALID,0,VALID,23.0688,VALID,276,VALID,0,
2012-07-30, 00:06:04,VALID,1011.23,VALID,0,VALID,104,VALID,0.112112,VALID,23.1095,VALID,276,VALID,0,
2012-07-30, 00:07:04,VALID,1011.2,VALID,0,VALID,104,VALID,0.112112,VALID,23.1095,VALID,276,VALID,0,
2012-07-30, 00:08:04,VALID,1011.19,VALID,0,VALID,104,VALID,0,VALID,23.0883,VALID,276,VALID,0,
2012-07-30, 00:09:04,VALID,1011.16,VALID,0,VALID,104,VALID,0,VALID,23.0883,VALID,276,VALID,0,
2012-07-30, 00:10:04,VALID,1011.14,VALID,0,VALID,104,VALID,0,VALID,23.0688,VALID,276,VALID,0,
2012-07-30, 00:11:04,VALID,1011.14,VALID,0,VALID,104,VALID,0,VALID,23.0883,VALID,276,VALID,0,
2012-07-30, 00:12:04,VALID,1011.1,VALID,0,VALID,104,VALID,0.112112,VALID,23.1095,VALID,276,VALID,0,
2012-07-30, 00:13:04,VALID,1011.08,VALID,0,VALID,104,VALID,0,VALID,23.09,VALID,276,VALID,0,
2012-07-30, 00:14:04,VALID,1011.07,VALID,0,VALID,104,VALID,0.112112,VALID,23.09,VALID,276,VALID,0,
2012-07-30, 00:15:04,VALID,1011.07,VALID,0,VALID,104,VALID,0,VALID,23.09,VALID,276,VALID,0,
2012-07-30, 00:16:04,VALID,1011.07,VALID,0,VALID,104,VALID,0,VALID,23.1095,VALID,276,VALID,0,
2012-07-30, 00:17:04,VALID,1011.08,VALID,0,VALID,104,VALID,0.112112,VALID,23.1485,VALID,276,VALID,0,
2012-07-30, 00:18:04,VALID,1011.08,VALID,0,VALID,104,VALID,0,VALID,23.1874,VALID,276,VALID,0,
2012-07-30, 00:19:04,VALID,1011.07,VALID,0,VALID,104,VALID,0,VALID,23.1874,VALID,276,VALID,0,
2012-07-30, 00:20:04,VALID,1011.07,VALID,0,VALID,104,VALID,0.112112,VALID,23.2264,VALID,276,VALID,0,
2012-07-30, 00:21:04,VALID,1011.05,VALID,0,VALID,104,VALID,0.112112,VALID,23.2654,VALID,240,VALID,0.296875,
2012-07-30, 00:22:04,VALID,1011.04,VALID,0,VALID,104,VALID,0.112112,VALID,23.3433,VALID,240,VALID,0.00351562,
2012-07-30, 00:23:04,VALID,1011,VALID,0,VALID,104,VALID,0.112112,VALID,23.3823,VALID,233,VALID,0.0566406,
2012-07-30, 00:24:04,VALID,1011,VALID,0,VALID,104,VALID,0,VALID,23.4602,VALID,190,VALID,0.104297,
2012-07-30, 00:25:04,VALID,1010.96,VALID,0,VALID,104,VALID,0.112112,VALID,23.5558,VALID,189,VALID,0.510156,
2012-07-30, 00:26:04,VALID,1010.95,VALID,0,VALID,104,VALID,0.112112,VALID,23.6161,VALID,190,VALID,0,
2012-07-30, 00:27:04,VALID,1010.94,VALID,0,VALID,104,VALID,0,VALID,23.6161,VALID,190,VALID,0,
2012-07-30, 00:28:04,VALID,1010.94,VALID,0,VALID,104,VALID,0,VALID,23.694,VALID,272,VALID,0.300391,
2012-07-30, 00:29:04,VALID,1010.95,VALID,0,VALID,104,VALID,0,VALID,23.8109,VALID,181,VALID,0.516016,
2012-07-30, 00:30:04,VALID,1010.92,VALID,0,VALID,104,VALID,0,VALID,23.9455,VALID,194,VALID,0.0195313,
2012-07-30, 00:31:04,VALID,1010.94,VALID,0,VALID,104,VALID,0.112112,VALID,24.0448,VALID,194,VALID,0,
2012-07-30, 00:32:04,VALID,1010.91,VALID,0,VALID,103.573,VALID,0.112112,VALID,24.0643,VALID,194,VALID,0.0117188,
2012-07-30, 00:33:04,VALID,1010.87,VALID,0,VALID,103.154,VALID,0,VALID,24.1032,VALID,194,VALID,0,
2012-07-30, 00:34:04,VALID,1010.87,VALID,0,VALID,102.833,VALID,0,VALID,24.1227,VALID,211,VALID,0,
2012-07-30, 00:35:04,VALID,1010.88,VALID,0,VALID,102.673,VALID,0,VALID,24.1793,VALID,206,VALID,1.01055,
2012-07-30, 00:36:04,VALID,1010.86,VALID,0,VALID,102.17,VALID,0,VALID,24.3566,VALID,207,VALID,0.347266,
2012-07-30, 00:37:04,VALID,1010.87,VALID,0,VALID,101.445,VALID,0.112112,VALID,24.454,VALID,207,VALID,0.286328,
2012-07-30, 00:38:04,VALID,1010.87,VALID,0,VALID,100.881,VALID,0,VALID,24.493,VALID,207,VALID,0,
2012-07-30, 00:39:04,VALID,1010.86,VALID,0,VALID,100.378,VALID,0.112112,VALID,24.493,VALID,207,VALID,0,
2012-07-30, 00:40:04,VALID,1010.89,VALID,0,VALID,99.2721,VALID,0,VALID,24.4735,VALID,207,VALID,0,
2012-07-30, 00:41:04,VALID,1010.88,VALID,0,VALID,96.603,VALID,0,VALID,24.4522,VALID,207,VALID,0,
2012-07-30, 00:42:04,VALID,1010.87,VALID,0,VALID,97.2741,VALID,0.112112,VALID,24.4327,VALID,207,VALID,0,
2012-07-30, 00:43:04,VALID,1010.88,VALID,0,VALID,97.5334,VALID,0.112112,VALID,24.4522,VALID,207,VALID,0,
2012-07-30, 00:44:04,VALID,1010.85,VALID,0,VALID,96.5725,VALID,0,VALID,24.4717,VALID,207,VALID,0.124219,
2012-07-30, 00:45:04,VALID,1010.88,VALID,0,VALID,95.5812,VALID,0,VALID,24.4364,VALID,207,VALID,0.0546875,
2012-07-30, 00:46:04,VALID,1010.83,VALID,0,VALID,97.4342,VALID,0,VALID,24.4559,VALID,189,VALID,0.816406,
2012-07-30, 00:47:04,VALID,1010.82,VALID,0,VALID,97.8689,VALID,0,VALID,24.5144,VALID,219,VALID,1.09258,
2012-07-30, 00:48:04,VALID,1010.81,VALID,0,VALID,95.7947,VALID,0,VALID,24.6294,VALID,241,VALID,0.484375,
2012-07-30, 00:49:04,VALID,1010.8,VALID,0,VALID,93.7891,VALID,0,VALID,24.6684,VALID,241,VALID,0.00195313,
2012-07-30, 00:50:04,VALID,1010.8,VALID,0,VALID,93.141,VALID,0,VALID,24.6898,VALID,241,VALID,0,
2012-07-30, 00:51:04,VALID,1010.79,VALID,0,VALID,92.4318,VALID,0,VALID,24.6489,VALID,241,VALID,0,
2012-07-30, 00:52:04,VALID,1010.78,VALID,0,VALID,92.8664,VALID,0,VALID,24.6294,VALID,241,VALID,0,
2012-07-30, 00:53:04,VALID,1010.76,VALID,0,VALID,93.3697,VALID,0,VALID,24.5905,VALID,241,VALID,0,
2012-07-30, 00:54:04,VALID,1010.75,VALID,0,VALID,93.9417,VALID,0,VALID,24.571,VALID,241,VALID,0,
2012-07-30, 00:55:04,VALID,1010.75,VALID,0,VALID,94.3687,VALID,0,VALID,24.5728,VALID,241,VALID,0,
2012-07-30, 00:56:04,VALID,1010.74,VALID,0,VALID,94.9406,VALID,0,VALID,24.5728,VALID,241,VALID,0.0703125,
2012-07-30, 00:57:04,VALID,1010.74,VALID,0,VALID,94.7195,VALID,0,VALID,24.571,VALID,241,VALID,0,
2012-07-30, 00:58:04,VALID,1010.75,VALID,0,VALID,94.3306,VALID,0,VALID,24.5515,VALID,241,VALID,0,
2012-07-30, 00:59:04,VALID,1010.76,VALID,0,VALID,94.8415,VALID,0,VALID,24.5515,VALID,212,VALID,0.320313,
2012-07-30, 01:00:04,VALID,1010.74,VALID,0,VALID,94.7195,VALID,0.112112,VALID,24.5691,VALID,212,VALID,0.00703125,
2012-07-30, 01:01:04,VALID,1010.71,VALID,0,VALID,94.6203,VALID,0,VALID,24.5905,VALID,212,VALID,0,
2012-07-30, 01:02:04,VALID,1010.71,VALID,0,VALID,94.5746,VALID,0,VALID,24.5886,VALID,212,VALID,0,
2012-07-30, 01:03:04,VALID,1010.67,VALID,0,VALID,94.0103,VALID,0.112112,VALID,24.6294,VALID,212,VALID,0,
2012-07-30, 01:04:04,VALID,1010.68,VALID,0,VALID,93.7281,VALID,0,VALID,24.6081,VALID,212,VALID,0,
2012-07-30, 01:05:04,VALID,1010.66,VALID,0,VALID,93.8273,VALID,0.112112,VALID,24.6294,VALID,173,VALID,0.986719,
2012-07-30, 01:06:04,VALID,1010.61,VALID,0,VALID,92.8588,VALID,0.112112,VALID,24.6294,VALID,175,VALID,0.184766,
2012-07-30, 01:07:04,VALID,1010.61,VALID,0,VALID,93.0113,VALID,0.112112,VALID,24.6099,VALID,175,VALID,0.246094,
2012-07-30, 01:08:04,VALID,1010.62,VALID,0,VALID,94.1628,VALID,0,VALID,24.6099,VALID,175,VALID,0.0339844,
2012-07-30, 01:09:04,VALID,1010.6,VALID,0,VALID,94.4755,VALID,0.112112,VALID,24.5905,VALID,175,VALID,0.0410156,
2012-07-30, 01:10:04,VALID,1010.61,VALID,0,VALID,94.628,VALID,0,VALID,24.5515,VALID,175,VALID,0.522266,
2012-07-30, 01:11:04,VALID,1010.6,VALID,0,VALID,94.8491,VALID,0,VALID,24.5515,VALID,175,VALID,0,
2012-07-30, 01:12:04,VALID,1010.6,VALID,0,VALID,95.177,VALID,0,VALID,24.5515,VALID,162,VALID,0.458203,
2012-07-30, 01:13:04,VALID,1010.55,VALID,0,VALID,94.8339,VALID,0,VALID,24.571,VALID,162,VALID,0.1375,
2012-07-30, 01:14:04,VALID,1010.56,VALID,0,VALID,94.4678,VALID,0,VALID,24.5301,VALID,162,VALID,0.368359,
2012-07-30, 01:15:04,VALID,1010.51,VALID,0,VALID,94.6737,VALID,0,VALID,24.532,VALID,162,VALID,0.266797,
2012-07-30, 01:16:04,VALID,1010.49,VALID,0,VALID,94.5288,VALID,0,VALID,24.5338,VALID,162,VALID,0.309375,
2012-07-30, 01:17:04,VALID,1010.47,VALID,0,VALID,94.8949,VALID,0,VALID,24.493,VALID,158,VALID,0.312891,
2012-07-30, 01:18:04,VALID,1010.42,VALID,0,VALID,94.6203,VALID,0,VALID,24.454,VALID,158,VALID,0,
2012-07-30, 01:19:04,VALID,1010.44,VALID,0,VALID,95.6041,VALID,0,VALID,24.4364,VALID,158,VALID,0,
2012-07-30, 01:20:04,VALID,1010.45,VALID,0,VALID,95.9777,VALID,0,VALID,24.3761,VALID,158,VALID,0,
2012-07-30, 01:21:04,VALID,1010.4,VALID,0,VALID,97.7774,VALID,0,VALID,24.3779,VALID,158,VALID,0,
2012-07-30, 01:22:04,VALID,1010.43,VALID,0,VALID,98.8374,VALID,0,VALID,24.3371,VALID,158,VALID,0,
2012-07-30, 01:23:04,VALID,1010.39,VALID,0,VALID,99.5542,VALID,0,VALID,24.3176,VALID,158,VALID,0,
2012-07-30, 01:24:04,VALID,1010.39,VALID,0,VALID,100.111,VALID,0,VALID,24.2981,VALID,160,VALID,0.348437,
2012-07-30, 01:25:04,VALID,1010.35,VALID,0,VALID,100.309,VALID,0,VALID,24.3566,VALID,201,VALID,0.604297,
2012-07-30, 01:26:04,VALID,1010.37,VALID,0,VALID,100.111,VALID,0,VALID,24.4169,VALID,205,VALID,0.478125,
2012-07-30, 01:27:04,VALID,1010.35,VALID,0,VALID,99.7906,VALID,0,VALID,24.4559,VALID,182,VALID,0.525781,
2012-07-30, 01:28:04,VALID,1010.34,VALID,0,VALID,99.3483,VALID,0,VALID,24.4949,VALID,187,VALID,0.919531,
2012-07-30, 01:29:04,VALID,1010.35,VALID,0,VALID,98.3798,VALID,0,VALID,24.5144,VALID,201,VALID,0.45,
2012-07-30, 01:30:04,VALID,1010.34,VALID,0,VALID,97.1292,VALID,0.112112,VALID,24.5515,VALID,201,VALID,0.175,
2012-07-30, 01:31:04,VALID,1010.32,VALID,0,VALID,96.1989,VALID,0,VALID,24.5301,VALID,200,VALID,0,
2012-07-30, 01:32:04,VALID,1010.35,VALID,0,VALID,95.8405,VALID,0,VALID,24.5515,VALID,197,VALID,0,
2012-07-30, 01:33:04,VALID,1010.34,VALID,0,VALID,95.5431,VALID,0,VALID,24.532,VALID,195,VALID,0,
2012-07-30, 01:34:04,VALID,1010.31,VALID,0,VALID,95.2152,VALID,0,VALID,24.532,VALID,195,VALID,0,
2012-07-30, 01:35:04,VALID,1010.31,VALID,0,VALID,95.871,VALID,0,VALID,24.5125,VALID,195,VALID,0,
2012-07-30, 01:36:04,VALID,1010.33,VALID,0,VALID,96.4353,VALID,0,VALID,24.5125,VALID,195,VALID,0,
2012-07-30, 01:37:04,VALID,1010.3,VALID,0,VALID,96.8471,VALID,0,VALID,24.4911,VALID,231,VALID,0.414844,
2012-07-30, 01:38:04,VALID,1010.29,VALID,0,VALID,97.2665,VALID,0,VALID,24.532,VALID,220,VALID,0.153906,
2012-07-30, 01:39:04,VALID,1010.29,VALID,0,VALID,96.7174,VALID,0,VALID,24.5515,VALID,220,VALID,0.10625,
2012-07-30, 01:40:04,VALID,1010.29,VALID,0,VALID,96.2294,VALID,0,VALID,24.5515,VALID,219,VALID,0.2875,
2012-07-30, 01:41:04,VALID,1010.28,VALID,0,VALID,96.7174,VALID,0,VALID,24.532,VALID,209,VALID,0.591016,
2012-07-30, 01:42:04,VALID,1010.23,VALID,0,VALID,97.5715,VALID,0.112112,VALID,24.5905,VALID,200,VALID,0.916016,
2012-07-30, 01:43:04,VALID,1010.24,VALID,0,VALID,95.4211,VALID,0,VALID,24.6294,VALID,194,VALID,0.432813,
2012-07-30, 01:44:04,VALID,1010.21,VALID,0,VALID,94.3077,VALID,0,VALID,24.6081,VALID,194,VALID,0.639453,
2012-07-30, 01:45:04,VALID,1010.2,VALID,0,VALID,94.7881,VALID,0,VALID,24.6508,VALID,184,VALID,0.647266,
2012-07-30, 01:46:04,VALID,1010.19,VALID,0,VALID,94.8796,VALID,0,VALID,24.6313,VALID,185,VALID,0.590234,
2012-07-30, 01:47:04,VALID,1010.14,VALID,0,VALID,94.4297,VALID,0,VALID,24.6118,VALID,180,VALID,0.737109,
2012-07-30, 01:48:04,VALID,1010.13,VALID,0,VALID,94.6203,VALID,0,VALID,24.6313,VALID,177,VALID,0.709766,
2012-07-30, 01:49:04,VALID,1010.15,VALID,0,VALID,94.689,VALID,0,VALID,24.6099,VALID,181,VALID,0.38125,
2012-07-30, 01:50:04,VALID,1010.12,VALID,0,VALID,94.9559,VALID,0,VALID,24.6294,VALID,199,VALID,0.728516,
2012-07-30, 01:51:04,VALID,1010.11,VALID,0,VALID,94.2543,VALID,0,VALID,24.6703,VALID,155,VALID,0.696484,
2012-07-30, 01:52:04,VALID,1010.13,VALID,0,VALID,93.9035,VALID,0,VALID,24.6294,VALID,177,VALID,0.541797,
2012-07-30, 01:53:04,VALID,1010.11,VALID,0,VALID,93.7434,VALID,0,VALID,24.6313,VALID,177,VALID,0.582812,
2012-07-30, 01:54:04,VALID,1010.09,VALID,0,VALID,94.0332,VALID,0,VALID,24.6313,VALID,185,VALID,0.389062,
2012-07-30, 01:55:04,VALID,1010.1,VALID,0,VALID,94.4755,VALID,0,VALID,24.6313,VALID,183,VALID,0.725,
2012-07-30, 01:56:04,VALID,1010.08,VALID,0,VALID,94.5746,VALID,0,VALID,24.6118,VALID,183,VALID,0.566797,
2012-07-30, 01:57:04,VALID,1010.05,VALID,0,VALID,94.5136,VALID,0,VALID,24.5923,VALID,183,VALID,0.237109,
2012-07-30, 01:58:04,VALID,1010.05,VALID,0,VALID,95.177,VALID,0,VALID,24.5728,VALID,196,VALID,0.664453,
2012-07-30, 01:59:04,VALID,1010.06,VALID,0,VALID,95.5507,VALID,0,VALID,24.5923,VALID,183,VALID,0.24375,
2012-07-30, 02:00:04,VALID,1010.03,VALID,0,VALID,96.0006,VALID,0,VALID,24.5515,VALID,165,VALID,0.884766,
2012-07-30, 02:01:04,VALID,1010.03,VALID,0,VALID,96.0387,VALID,0,VALID,24.5496,VALID,165,VALID,0.533203,
2012-07-30, 02:02:04,VALID,1010,VALID,0,VALID,95.5583,VALID,0,VALID,24.5515,VALID,166,VALID,0.384766,
2012-07-30, 02:03:04,VALID,1009.98,VALID,0,VALID,95.8939,VALID,0,VALID,24.4911,VALID,164,VALID,0.462891,
2012-07-30, 02:04:04,VALID,1009.98,VALID,0,VALID,96.7251,VALID,0.112112,VALID,24.493,VALID,165,VALID,0.220703,
2012-07-30, 02:05:04,VALID,1009.97,VALID,0,VALID,97.6935,VALID,0,VALID,24.4522,VALID,165,VALID,0,
2012-07-30, 02:06:04,VALID,1009.95,VALID,0,VALID,98.8221,VALID,0,VALID,24.4327,VALID,166,VALID,0,
2012-07-30, 02:07:04,VALID,1009.93,VALID,0,VALID,99.5923,VALID,0,VALID,24.3937,VALID,166,VALID,0,
2012-07-30, 02:08:04,VALID,1009.91,VALID,0,VALID,100.103,VALID,0,VALID,24.415,VALID,176,VALID,0.841406,
2012-07-30, 02:09:04,VALID,1009.89,VALID,0,VALID,100.21,VALID,0.112112,VALID,24.4132,VALID,163,VALID,0.325,
2012-07-30, 02:10:04,VALID,1009.85,VALID,0,VALID,100.103,VALID,0.112112,VALID,24.3937,VALID,164,VALID,0.572266,
2012-07-30, 02:11:04,VALID,1009.85,VALID,0,VALID,100.202,VALID,0,VALID,24.3547,VALID,164,VALID,0.537109,
2012-07-30, 02:12:04,VALID,1009.84,VALID,0,VALID,100.607,VALID,0,VALID,24.3761,VALID,163,VALID,0.812891,
2012-07-30, 02:13:04,VALID,1009.85,VALID,0,VALID,100.652,VALID,0,VALID,24.3547,VALID,163,VALID,0.533984,
2012-07-30, 02:14:04,VALID,1009.84,VALID,0,VALID,100.629,VALID,0.112112,VALID,24.3742,VALID,164,VALID,0.510547,
2012-07-30, 02:15:04,VALID,1009.86,VALID,0,VALID,100.729,VALID,0,VALID,24.3956,VALID,200,VALID,0.814453,
2012-07-30, 02:16:04,VALID,1009.88,VALID,0,VALID,100.683,VALID,0,VALID,24.415,VALID,204,VALID,0.587891,
2012-07-30, 02:17:04,VALID,1009.86,VALID,0,VALID,100.584,VALID,0,VALID,24.415,VALID,184,VALID,1.04219,
2012-07-30, 02:18:04,VALID,1009.85,VALID,0,VALID,100.568,VALID,0.112112,VALID,24.3937,VALID,191,VALID,0.842188,
2012-07-30, 02:19:04,VALID,1009.83,VALID,0,VALID,100.485,VALID,0,VALID,24.3956,VALID,181,VALID,0.903906,
2012-07-30, 02:20:04,VALID,1009.81,VALID,0,VALID,100.492,VALID,0,VALID,24.3956,VALID,164,VALID,0.810547,
2012-07-30, 02:21:04,VALID,1009.84,VALID,0,VALID,100.515,VALID,0,VALID,24.3742,VALID,183,VALID,0.752734,
2012-07-30, 02:22:04,VALID,1009.84,VALID,0,VALID,100.614,VALID,0,VALID,24.3352,VALID,180,VALID,0.711719,
2012-07-30, 02:23:04,VALID,1009.86,VALID,0,VALID,100.828,VALID,0,VALID,24.3352,VALID,196,VALID,0.736719,
2012-07-30, 02:24:04,VALID,1009.85,VALID,0,VALID,100.995,VALID,0,VALID,24.3176,VALID,189,VALID,0.895703,
2012-07-30, 02:25:04,VALID,1009.84,VALID,0,VALID,101.079,VALID,0,VALID,24.3371,VALID,167,VALID,0.598437,
2012-07-30, 02:26:04,VALID,1009.84,VALID,0,VALID,101.11,VALID,0,VALID,24.3371,VALID,197,VALID,0.772266,
2012-07-30, 02:27:04,VALID,1009.83,VALID,0,VALID,101.102,VALID,0,VALID,24.2963,VALID,197,VALID,0.270703,
2012-07-30, 02:28:04,VALID,1009.83,VALID,0,VALID,101.262,VALID,0,VALID,24.2963,VALID,171,VALID,0.510938,
2012-07-30, 02:29:04,VALID,1009.81,VALID,0,VALID,101.339,VALID,0,VALID,24.2981,VALID,177,VALID,0.592188,
2012-07-30, 02:30:04,VALID,1009.79,VALID,0,VALID,101.384,VALID,0.112112,VALID,24.2768,VALID,180,VALID,0.253125,
2012-07-30, 02:31:04,VALID,1009.76,VALID,0,VALID,101.445,VALID,0.112112,VALID,24.2786,VALID,181,VALID,0.758594,
2012-07-30, 02:32:04,VALID,1009.73,VALID,0,VALID,101.575,VALID,0.112112,VALID,24.2981,VALID,181,VALID,0.524609,
2012-07-30, 02:33:04,VALID,1009.73,VALID,0,VALID,101.674,VALID,0,VALID,24.2768,VALID,199,VALID,0.703906,
2012-07-30, 02:34:04,VALID,1009.7,VALID,0,VALID,101.529,VALID,0,VALID,24.2981,VALID,195,VALID,0.624219,
2012-07-30, 02:35:04,VALID,1009.69,VALID,0,VALID,101.537,VALID,0.112112,VALID,24.2768,VALID,172,VALID,0.964063,
2012-07-30, 02:36:04,VALID,1009.7,VALID,0,VALID,101.621,VALID,0,VALID,24.3176,VALID,178,VALID,0.808203,
2012-07-30, 02:37:04,VALID,1009.68,VALID,0,VALID,101.59,VALID,0,VALID,24.3371,VALID,187,VALID,1.34609,
2012-07-30, 02:38:04,VALID,1009.69,VALID,0,VALID,101.354,VALID,0,VALID,24.3352,VALID,175,VALID,0.425,
2012-07-30, 02:39:04,VALID,1009.67,VALID,0,VALID,101.209,VALID,0.112112,VALID,24.3371,VALID,175,VALID,0.437891,
2012-07-30, 02:40:04,VALID,1009.66,VALID,0,VALID,101.316,VALID,0,VALID,24.3371,VALID,176,VALID,0.302734,
2012-07-30, 02:41:04,VALID,1009.65,VALID,0,VALID,101.27,VALID,0,VALID,24.2981,VALID,174,VALID,0.6,
2012-07-30, 02:42:04,VALID,1009.65,VALID,0,VALID,101.445,VALID,0,VALID,24.2768,VALID,188,VALID,0.642187,
2012-07-30, 02:43:04,VALID,1009.66,VALID,0,VALID,101.651,VALID,0.112112,VALID,24.2981,VALID,181,VALID,1.28945,
2012-07-30, 02:44:04,VALID,1009.64,VALID,0,VALID,101.712,VALID,0,VALID,24.2981,VALID,178,VALID,0.669531,
2012-07-30, 02:45:04,VALID,1009.65,VALID,0,VALID,101.659,VALID,0,VALID,24.2963,VALID,179,VALID,1.38945,
2012-07-30, 02:46:04,VALID,1009.67,VALID,0,VALID,101.621,VALID,0,VALID,24.3371,VALID,177,VALID,0.610156,
2012-07-30, 02:47:04,VALID,1009.68,VALID,0,VALID,101.407,VALID,0,VALID,24.3566,VALID,178,VALID,1.30781,
2012-07-30, 02:48:04,VALID,1009.66,VALID,0,VALID,101.384,VALID,0.112112,VALID,24.3761,VALID,175,VALID,1.21758,
2012-07-30, 02:49:04,VALID,1009.69,VALID,0,VALID,101.262,VALID,0,VALID,24.3742,VALID,162,VALID,0.660937,
2012-07-30, 02:50:04,VALID,1009.67,VALID,0,VALID,101.224,VALID,0,VALID,24.3742,VALID,182,VALID,0.740625,
2012-07-30, 02:51:04,VALID,1009.71,VALID,0,VALID,101.163,VALID,0,VALID,24.3742,VALID,177,VALID,0.819922,
2012-07-30, 02:52:04,VALID,1009.71,VALID,0,VALID,101.247,VALID,0,VALID,24.3937,VALID,191,VALID,1.14531,
2012-07-30, 02:53:04,VALID,1009.75,VALID,0,VALID,101.102,VALID,0,VALID,24.3937,VALID,174,VALID,0.911328,
2012-07-30, 02:54:04,VALID,1009.75,VALID,0,VALID,101.095,VALID,0,VALID,24.3956,VALID,182,VALID,0.719922,
2012-07-30, 02:55:04,VALID,1009.75,VALID,0,VALID,101.011,VALID,0,VALID,24.415,VALID,171,VALID,0.360156,
2012-07-30, 02:56:04,VALID,1009.75,VALID,0,VALID,101.11,VALID,0,VALID,24.3937,VALID,148,VALID,1.05781,
2012-07-30, 02:57:04,VALID,1009.76,VALID,0,VALID,101.034,VALID,0,VALID,24.4132,VALID,145,VALID,0.767187,
2012-07-30, 02:58:04,VALID,1009.72,VALID,0,VALID,100.889,VALID,0.112112,VALID,24.4132,VALID,149,VALID,0.575391,
2012-07-30, 02:59:04,VALID,1009.7,VALID,0,VALID,100.896,VALID,0.112112,VALID,24.3937,VALID,149,VALID,0.386328,
2012-07-30, 03:00:04,VALID,1009.72,VALID,0,VALID,101.056,VALID,0,VALID,24.3956,VALID,165,VALID,0.805859,
2012-07-30, 03:01:04,VALID,1009.69,VALID,0,VALID,101.156,VALID,0.112112,VALID,24.3956,VALID,175,VALID,0.827734,
2012-07-30, 03:02:04,VALID,1009.64,VALID,0,VALID,101.148,VALID,0,VALID,24.415,VALID,179,VALID,0.739453,
2012-07-30, 03:03:04,VALID,1009.63,VALID,0,VALID,101.156,VALID,0.112112,VALID,24.3937,VALID,156,VALID,1.6582,
2012-07-30, 03:04:04,VALID,1009.63,VALID,0,VALID,101.079,VALID,0,VALID,24.3937,VALID,207,VALID,0.452734,
2012-07-30, 03:05:04,VALID,1009.62,VALID,0,VALID,101.049,VALID,0.112112,VALID,24.415,VALID,179,VALID,0.795703,
2012-07-30, 03:06:04,VALID,1009.61,VALID,0,VALID,101.064,VALID,0,VALID,24.415,VALID,152,VALID,1.09531,
2012-07-30, 03:07:04,VALID,1009.6,VALID,0,VALID,101.049,VALID,0,VALID,24.3937,VALID,203,VALID,1.05313,
2012-07-30, 03:08:04,VALID,1009.61,VALID,0,VALID,101.064,VALID,0,VALID,24.3956,VALID,170,VALID,1.01094,
2012-07-30, 03:09:04,VALID,1009.6,VALID,0,VALID,101.201,VALID,0,VALID,24.415,VALID,208,VALID,1.90547,
2012-07-30, 03:10:04,VALID,1009.58,VALID,0,VALID,101.003,VALID,0,VALID,24.4132,VALID,168,VALID,0.790625,
2012-07-30, 03:11:04,VALID,1009.6,VALID,0,VALID,100.942,VALID,0.112112,VALID,24.4327,VALID,172,VALID,0.730859,
2012-07-30, 03:12:04,VALID,1009.59,VALID,0,VALID,100.873,VALID,0,VALID,24.4327,VALID,158,VALID,1.02266,
2012-07-30, 03:13:04,VALID,1009.59,VALID,0,VALID,100.881,VALID,0,VALID,24.454,VALID,193,VALID,1.56523,
2012-07-30, 03:14:04,VALID,1009.6,VALID,0,VALID,100.782,VALID,0,VALID,24.4735,VALID,191,VALID,0.851172,
2012-07-30, 03:15:04,VALID,1009.61,VALID,0,VALID,100.576,VALID,0,VALID,24.4522,VALID,191,VALID,0.282422,
2012-07-30, 03:16:04,VALID,1009.59,VALID,0,VALID,100.607,VALID,0,VALID,24.4717,VALID,177,VALID,1.78672,
2012-07-30, 03:17:04,VALID,1009.57,VALID,0,VALID,100.401,VALID,0,VALID,24.4717,VALID,177,VALID,0.624219,
2012-07-30, 03:18:04,VALID,1009.58,VALID,0,VALID,100.363,VALID,0,VALID,24.4522,VALID,187,VALID,1.42266,
2012-07-30, 03:19:04,VALID,1009.56,VALID,0,VALID,100.271,VALID,0.112112,VALID,24.4911,VALID,171,VALID,1.66602,
2012-07-30, 03:20:04,VALID,1009.59,VALID,0,VALID,100.088,VALID,0,VALID,24.4911,VALID,181,VALID,1.53555,
2012-07-30, 03:21:04,VALID,1009.59,VALID,0,VALID,100.019,VALID,0.112112,VALID,24.4522,VALID,162,VALID,0.861328,
2012-07-30, 03:22:04,VALID,1009.6,VALID,0,VALID,100.233,VALID,0.112112,VALID,24.4522,VALID,203,VALID,0.815234,
2012-07-30, 03:23:04,VALID,1009.6,VALID,0,VALID,100.263,VALID,0.112112,VALID,24.4132,VALID,168,VALID,0.551953,
2012-07-30, 03:24:04,VALID,1009.62,VALID,0,VALID,100.485,VALID,0,VALID,24.3956,VALID,168,VALID,0.646875,
2012-07-30, 03:25:04,VALID,1009.62,VALID,0,VALID,100.774,VALID,0,VALID,24.3956,VALID,163,VALID,0.949219,
2012-07-30, 03:26:04,VALID,1009.63,VALID,0,VALID,100.957,VALID,0,VALID,24.3761,VALID,169,VALID,0.924219,
2012-07-30, 03:27:04,VALID,1009.6,VALID,0,VALID,101.041,VALID,0,VALID,24.3547,VALID,167,VALID,1.27344,
2012-07-30, 03:28:04,VALID,1009.61,VALID,0,VALID,101.095,VALID,0.112112,VALID,24.3352,VALID,178,VALID,1.36797,
2012-07-30, 03:29:04,VALID,1009.64,VALID,0,VALID,101.102,VALID,0.112112,VALID,24.3956,VALID,167,VALID,1.5293,
2012-07-30, 03:30:04,VALID,1009.64,VALID,0,VALID,101.041,VALID,0,VALID,24.3761,VALID,190,VALID,1.41836,
2012-07-30, 03:31:04,VALID,1009.68,VALID,0,VALID,100.942,VALID,0,VALID,24.3761,VALID,177,VALID,0.996094,
2012-07-30, 03:32:04,VALID,1009.65,VALID,0,VALID,100.942,VALID,0,VALID,24.3761,VALID,161,VALID,1.45313,
2012-07-30, 03:33:04,VALID,1009.65,VALID,0,VALID,101.11,VALID,0,VALID,24.3566,VALID,195,VALID,0.782812,
2012-07-30, 03:34:04,VALID,1009.63,VALID,0,VALID,101.056,VALID,0,VALID,24.3566,VALID,172,VALID,0.852344,
2012-07-30, 03:35:04,VALID,1009.59,VALID,0,VALID,101.194,VALID,0,VALID,24.3371,VALID,178,VALID,1.0375,
2012-07-30, 03:36:04,VALID,1009.59,VALID,0,VALID,101.171,VALID,0,VALID,24.3371,VALID,159,VALID,0.764063,
2012-07-30, 03:37:04,VALID,1009.57,VALID,0,VALID,101.262,VALID,0,VALID,24.3176,VALID,179,VALID,0.755469,
2012-07-30, 03:38:04,VALID,1009.53,VALID,0,VALID,101.369,VALID,0,VALID,24.2981,VALID,176,VALID,0.956641,
2012-07-30, 03:39:04,VALID,1009.54,VALID,0,VALID,101.423,VALID,0,VALID,24.2786,VALID,180,VALID,0.841406,
2012-07-30, 03:40:04,VALID,1009.55,VALID,0,VALID,101.628,VALID,0,VALID,24.2786,VALID,186,VALID,0.915625,
2012-07-30, 03:41:04,VALID,1009.57,VALID,0,VALID,101.628,VALID,0,VALID,24.2786,VALID,168,VALID,1.52695,
2012-07-30, 03:42:05,VALID,1009.54,VALID,0,VALID,101.621,VALID,0,VALID,24.2786,VALID,156,VALID,1.43359,
2012-07-30, 03:43:05,VALID,1009.55,VALID,0,VALID,101.499,VALID,0,VALID,24.2981,VALID,173,VALID,1.11172,
2012-07-30, 03:44:05,VALID,1009.58,VALID,0,VALID,101.476,VALID,0,VALID,24.2786,VALID,168,VALID,1.04492,
2012-07-30, 03:45:05,VALID,1009.52,VALID,0,VALID,101.552,VALID,0,VALID,24.2591,VALID,177,VALID,1.20742,
2012-07-30, 03:46:05,VALID,1009.54,VALID,0,VALID,101.613,VALID,0,VALID,24.2591,VALID,171,VALID,0.791016,